Location: Oberwangen
(47.4286°N, 8.9679°E)
Time: 07:11:34
(UTC+00:00)

Cosmos 1346 Rocket - Pass Details

Date: 20 June 2021
Orbit: 526 x 551 km, 81.2° (Epoch: 28 July)

Event Time Altitude Azimuth Distance (km) Brightness Sun altitude
Exits shadow 21:46:29 24° 192° (SSW) 1,144 4.0 -15.7°
Maximum altitude 21:48:48 88° 275° (W) 555 2.8 -15.8°
Drops below altitude 10° 21:52:52 10° 11° (N) 1,836 6.4 -16.1°
Sets 21:55:03 0° 12° (NNE) 2,737 7.4 -16.2°
